sat.trackr.live / text

‹ back to catalog

STARLINK-37265

NORAD 69548 · 2026-135C

PAYLOAD ACTIVE UNKNOWN

§ Identity

Operator
Country
US
Launch date
2026-06-15
Launch site
AFWTR
Launch vehicle
Mass (kg)
RCS (m²)

Purposes: comms

External: N2YO · Heavens-Above · Gunter

§ Orbital elements

Epoch: 2026-09-20T00:35:07.844640Z

Period
93.91 min
Inclination
97.2831°
Eccentricity
0.0001404
Mean motion
15.33460491 rev/d
Perigee alt
464.5 km
Apogee alt
466.5 km
Semi-major
6,843.6 km
B*
3.7673e-4
RAAN
290.6621°
Arg perigee
97.6280°
Mean anomaly
262.5123°
Rev number
1,492

§ Raw data

STARLINK-372651 69548U 26135C   26263.02439635  .00012113  00000+0  37673-3 0  99962 69548  97.2831 290.6621 0001404  97.6280 262.5123 15.33460491 14924

JSON: /api/v1/satellites/69548 · /tle

For live sub-satellite position, see the globe view (requires WebGL).

§ Visibility from observer

Set your observer location to see the next 7 days of passes ≥ 10°. The values pass through the URL so the page stays shareable.

No JS? Fill the form by hand. The geolocation button needs JavaScript.